<?xml version="1.0" encoding="UTF-8" standalone="no" ?>
<gpx xmlns="http://www.topografix.com/GPX/1/1" xmlns:xsi="http://www.w3.org/2001/XMLSchema-instance" xsi:schemaLocation="http://www.topografix.com/GPX/1/1 http://www.topografix.com/GPX/1/1/gpx.xsd" version="1.1" creator="VisuGPX - https://www.visugpx.com">
  <metadata>
    <name>38 chartreuse +1000m 10km Col du coq Bec Charvet</name>
    <desc><![CDATA[rando ski]]></desc>
  </metadata>
  <trk>
    <name><![CDATA[TRACE01]]></name>
    <trkseg>
      <trkpt lat="45.29662" lon="5.84512">
        <ele>1219</ele>
        <time>2013-03-21T18:03:09Z</time>
      </trkpt>
      <trkpt lat="45.29693" lon="5.84474">
        <ele>1223</ele>
        <time>2013-03-21T18:03:09Z</time>
      </trkpt>
      <trkpt lat="45.29714" lon="5.84455">
        <ele>1226</ele>
        <time>2013-03-21T18:03:09Z</time>
      </trkpt>
      <trkpt lat="45.2975" lon="5.84427">
        <ele>1231</ele>
        <time>2013-03-21T18:03:09Z</time>
      </trkpt>
      <trkpt lat="45.29775" lon="5.84399">
        <ele>1236</ele>
        <time>2013-03-21T18:03:09Z</time>
      </trkpt>
      <trkpt lat="45.29796" lon="5.84389">
        <ele>1239</ele>
        <time>2013-03-21T18:03:09Z</time>
      </trkpt>
      <trkpt lat="45.29851" lon="5.84337">
        <ele>1248</ele>
        <time>2013-03-21T18:03:09Z</time>
      </trkpt>
      <trkpt lat="45.29874" lon="5.84318">
        <ele>1252</ele>
        <time>2013-03-21T18:03:09Z</time>
      </trkpt>
      <trkpt lat="45.29892" lon="5.84299">
        <ele>1254</ele>
        <time>2013-03-21T18:03:09Z</time>
      </trkpt>
      <trkpt lat="45.29909" lon="5.84269">
        <ele>1258</ele>
        <time>2013-03-21T18:03:09Z</time>
      </trkpt>
      <trkpt lat="45.29932" lon="5.84248">
        <ele>1262</ele>
        <time>2013-03-21T18:03:09Z</time>
      </trkpt>
      <trkpt lat="45.29955" lon="5.84225">
        <ele>1265</ele>
        <time>2013-03-21T18:03:09Z</time>
      </trkpt>
      <trkpt lat="45.29978" lon="5.84208">
        <ele>1269</ele>
        <time>2013-03-21T18:03:09Z</time>
      </trkpt>
      <trkpt lat="45.30012" lon="5.84189">
        <ele>1272</ele>
        <time>2013-03-21T18:03:09Z</time>
      </trkpt>
      <trkpt lat="45.30026" lon="5.84165">
        <ele>1275</ele>
        <time>2013-03-21T18:03:09Z</time>
      </trkpt>
      <trkpt lat="45.30019" lon="5.84138">
        <ele>1280</ele>
        <time>2013-03-21T18:03:09Z</time>
      </trkpt>
      <trkpt lat="45.29995" lon="5.84117">
        <ele>1283</ele>
        <time>2013-03-21T18:03:09Z</time>
      </trkpt>
      <trkpt lat="45.29967" lon="5.84083">
        <ele>1286</ele>
        <time>2013-03-21T18:03:09Z</time>
      </trkpt>
      <trkpt lat="45.29975" lon="5.84059">
        <ele>1292</ele>
        <time>2013-03-21T18:03:09Z</time>
      </trkpt>
      <trkpt lat="45.29994" lon="5.84068">
        <ele>1293</ele>
        <time>2013-03-21T18:03:09Z</time>
      </trkpt>
      <trkpt lat="45.30027" lon="5.84081">
        <ele>1298</ele>
        <time>2013-03-21T18:03:09Z</time>
      </trkpt>
      <trkpt lat="45.30063" lon="5.84074">
        <ele>1303</ele>
        <time>2013-03-21T18:03:09Z</time>
      </trkpt>
      <trkpt lat="45.30102" lon="5.84066">
        <ele>1305</ele>
        <time>2013-03-21T18:03:09Z</time>
      </trkpt>
      <trkpt lat="45.3014" lon="5.84057">
        <ele>1310</ele>
        <time>2013-03-21T18:03:09Z</time>
      </trkpt>
      <trkpt lat="45.3017" lon="5.84048">
        <ele>1313</ele>
        <time>2013-03-21T18:03:09Z</time>
      </trkpt>
      <trkpt lat="45.3019" lon="5.84048">
        <ele>1316</ele>
        <time>2013-03-21T18:03:09Z</time>
      </trkpt>
      <trkpt lat="45.30207" lon="5.84065">
        <ele>1318</ele>
        <time>2013-03-21T18:03:09Z</time>
      </trkpt>
      <trkpt lat="45.30212" lon="5.84104">
        <ele>1321</ele>
        <time>2013-03-21T18:03:09Z</time>
      </trkpt>
      <trkpt lat="45.30233" lon="5.84093">
        <ele>1323</ele>
        <time>2013-03-21T18:03:09Z</time>
      </trkpt>
      <trkpt lat="45.30224" lon="5.84047">
        <ele>1326</ele>
        <time>2013-03-21T18:03:09Z</time>
      </trkpt>
      <trkpt lat="45.30217" lon="5.84018">
        <ele>1329</ele>
        <time>2013-03-21T18:03:09Z</time>
      </trkpt>
      <trkpt lat="45.30197" lon="5.83977">
        <ele>1333</ele>
        <time>2013-03-21T18:03:09Z</time>
      </trkpt>
      <trkpt lat="45.30179" lon="5.83967">
        <ele>1334</ele>
        <time>2013-03-21T18:03:09Z</time>
      </trkpt>
      <trkpt lat="45.30147" lon="5.83963">
        <ele>1339</ele>
        <time>2013-03-21T18:03:09Z</time>
      </trkpt>
      <trkpt lat="45.30145" lon="5.83956">
        <ele>1341</ele>
        <time>2013-03-21T18:03:09Z</time>
      </trkpt>
      <trkpt lat="45.30194" lon="5.83942">
        <ele>1347</ele>
        <time>2013-03-21T18:03:09Z</time>
      </trkpt>
      <trkpt lat="45.30214" lon="5.83939">
        <ele>1350</ele>
        <time>2013-03-21T18:03:09Z</time>
      </trkpt>
      <trkpt lat="45.30237" lon="5.83954">
        <ele>1354</ele>
        <time>2013-03-21T18:03:09Z</time>
      </trkpt>
      <trkpt lat="45.30266" lon="5.83978">
        <ele>1356</ele>
        <time>2013-03-21T18:03:09Z</time>
      </trkpt>
      <trkpt lat="45.30285" lon="5.83998">
        <ele>1361</ele>
        <time>2013-03-21T18:03:09Z</time>
      </trkpt>
      <trkpt lat="45.30304" lon="5.84015">
        <ele>1362</ele>
        <time>2013-03-21T18:03:09Z</time>
      </trkpt>
      <trkpt lat="45.3033" lon="5.84039">
        <ele>1366</ele>
        <time>2013-03-21T18:03:09Z</time>
      </trkpt>
      <trkpt lat="45.3035" lon="5.84025">
        <ele>1369</ele>
        <time>2013-03-21T18:03:09Z</time>
      </trkpt>
      <trkpt lat="45.30341" lon="5.83992">
        <ele>1371</ele>
        <time>2013-03-21T18:03:09Z</time>
      </trkpt>
      <trkpt lat="45.30331" lon="5.83968">
        <ele>1374</ele>
        <time>2013-03-21T18:03:09Z</time>
      </trkpt>
      <trkpt lat="45.30322" lon="5.83937">
        <ele>1376</ele>
        <time>2013-03-21T18:03:09Z</time>
      </trkpt>
      <trkpt lat="45.30334" lon="5.83919">
        <ele>1379</ele>
        <time>2013-03-21T18:03:09Z</time>
      </trkpt>
      <trkpt lat="45.30362" lon="5.83953">
        <ele>1383</ele>
        <time>2013-03-21T18:03:09Z</time>
      </trkpt>
      <trkpt lat="45.30387" lon="5.83986">
        <ele>1386</ele>
        <time>2013-03-21T18:03:09Z</time>
      </trkpt>
      <trkpt lat="45.30421" lon="5.84012">
        <ele>1391</ele>
        <time>2013-03-21T18:03:09Z</time>
      </trkpt>
      <trkpt lat="45.30454" lon="5.84022">
        <ele>1395</ele>
        <time>2013-03-21T18:03:09Z</time>
      </trkpt>
      <trkpt lat="45.30484" lon="5.84031">
        <ele>1399</ele>
        <time>2013-03-21T18:03:09Z</time>
      </trkpt>
      <trkpt lat="45.305" lon="5.84049">
        <ele>1402</ele>
        <time>2013-03-21T18:03:09Z</time>
      </trkpt>
      <trkpt lat="45.30527" lon="5.84057">
        <ele>1405</ele>
        <time>2013-03-21T18:03:09Z</time>
      </trkpt>
      <trkpt lat="45.30532" lon="5.84023">
        <ele>1407</ele>
        <time>2013-03-21T18:03:09Z</time>
      </trkpt>
      <trkpt lat="45.30529" lon="5.83992">
        <ele>1409</ele>
        <time>2013-03-21T18:03:09Z</time>
      </trkpt>
      <trkpt lat="45.30517" lon="5.83953">
        <ele>1413</ele>
        <time>2013-03-21T18:03:09Z</time>
      </trkpt>
      <trkpt lat="45.305" lon="5.83933">
        <ele>1414</ele>
        <time>2013-03-21T18:03:09Z</time>
      </trkpt>
      <trkpt lat="45.30479" lon="5.83918">
        <ele>1416</ele>
        <time>2013-03-21T18:03:09Z</time>
      </trkpt>
      <trkpt lat="45.30454" lon="5.8388">
        <ele>1421</ele>
        <time>2013-03-21T18:03:09Z</time>
      </trkpt>
      <trkpt lat="45.30441" lon="5.83861">
        <ele>1423</ele>
        <time>2013-03-21T18:03:09Z</time>
      </trkpt>
      <trkpt lat="45.30425" lon="5.83842">
        <ele>1424</ele>
        <time>2013-03-21T18:03:09Z</time>
      </trkpt>
      <trkpt lat="45.30412" lon="5.83822">
        <ele>1427</ele>
        <time>2013-03-21T18:03:09Z</time>
      </trkpt>
      <trkpt lat="45.30401" lon="5.83802">
        <ele>1429</ele>
        <time>2013-03-21T18:03:09Z</time>
      </trkpt>
      <trkpt lat="45.30368" lon="5.83782">
        <ele>1433</ele>
        <time>2013-03-21T18:03:09Z</time>
      </trkpt>
      <trkpt lat="45.30336" lon="5.83767">
        <ele>1436</ele>
        <time>2013-03-21T18:03:09Z</time>
      </trkpt>
      <trkpt lat="45.30302" lon="5.83745">
        <ele>1439</ele>
        <time>2013-03-21T18:03:09Z</time>
      </trkpt>
      <trkpt lat="45.30277" lon="5.83716">
        <ele>1443</ele>
        <time>2013-03-21T18:03:09Z</time>
      </trkpt>
      <trkpt lat="45.30252" lon="5.8369">
        <ele>1447</ele>
        <time>2013-03-21T18:03:09Z</time>
      </trkpt>
      <trkpt lat="45.30223" lon="5.83698">
        <ele>1445</ele>
        <time>2013-03-21T18:03:09Z</time>
      </trkpt>
      <trkpt lat="45.30197" lon="5.83703">
        <ele>1446</ele>
        <time>2013-03-21T18:03:09Z</time>
      </trkpt>
      <trkpt lat="45.30171" lon="5.83703">
        <ele>1450</ele>
        <time>2013-03-21T18:03:09Z</time>
      </trkpt>
      <trkpt lat="45.30146" lon="5.83698">
        <ele>1453</ele>
        <time>2013-03-21T18:03:09Z</time>
      </trkpt>
      <trkpt lat="45.30127" lon="5.83696">
        <ele>1455</ele>
        <time>2013-03-21T18:03:09Z</time>
      </trkpt>
      <trkpt lat="45.30101" lon="5.83702">
        <ele>1460</ele>
        <time>2013-03-21T18:03:09Z</time>
      </trkpt>
      <trkpt lat="45.3008" lon="5.83699">
        <ele>1462</ele>
        <time>2013-03-21T18:03:09Z</time>
      </trkpt>
      <trkpt lat="45.30064" lon="5.8369">
        <ele>1467</ele>
        <time>2013-03-21T18:03:09Z</time>
      </trkpt>
      <trkpt lat="45.30049" lon="5.83681">
        <ele>1475</ele>
        <time>2013-03-21T18:03:09Z</time>
      </trkpt>
      <trkpt lat="45.3003" lon="5.8367">
        <ele>1481</ele>
        <time>2013-03-21T18:03:09Z</time>
      </trkpt>
      <trkpt lat="45.30012" lon="5.83665">
        <ele>1484</ele>
        <time>2013-03-21T18:03:09Z</time>
      </trkpt>
      <trkpt lat="45.30001" lon="5.83648">
        <ele>1490</ele>
        <time>2013-03-21T18:03:09Z</time>
      </trkpt>
      <trkpt lat="45.30006" lon="5.83621">
        <ele>1496</ele>
        <time>2013-03-21T18:03:09Z</time>
      </trkpt>
      <trkpt lat="45.29979" lon="5.83602">
        <ele>1501</ele>
        <time>2013-03-21T18:03:09Z</time>
      </trkpt>
      <trkpt lat="45.29961" lon="5.83589">
        <ele>1504</ele>
        <time>2013-03-21T18:03:09Z</time>
      </trkpt>
      <trkpt lat="45.2995" lon="5.83558">
        <ele>1508</ele>
        <time>2013-03-21T18:03:09Z</time>
      </trkpt>
      <trkpt lat="45.29938" lon="5.83539">
        <ele>1511</ele>
        <time>2013-03-21T18:03:09Z</time>
      </trkpt>
      <trkpt lat="45.29935" lon="5.83507">
        <ele>1516</ele>
        <time>2013-03-21T18:03:09Z</time>
      </trkpt>
      <trkpt lat="45.29922" lon="5.83488">
        <ele>1522</ele>
        <time>2013-03-21T18:03:09Z</time>
      </trkpt>
      <trkpt lat="45.29901" lon="5.8348">
        <ele>1528</ele>
        <time>2013-03-21T18:03:09Z</time>
      </trkpt>
      <trkpt lat="45.29889" lon="5.83459">
        <ele>1530</ele>
        <time>2013-03-21T18:03:09Z</time>
      </trkpt>
      <trkpt lat="45.29864" lon="5.83445">
        <ele>1531</ele>
        <time>2013-03-21T18:03:09Z</time>
      </trkpt>
      <trkpt lat="45.29845" lon="5.83429">
        <ele>1532</ele>
        <time>2013-03-21T18:03:09Z</time>
      </trkpt>
      <trkpt lat="45.29826" lon="5.83416">
        <ele>1533</ele>
        <time>2013-03-21T18:03:09Z</time>
      </trkpt>
      <trkpt lat="45.29808" lon="5.83398">
        <ele>1536</ele>
        <time>2013-03-21T18:03:09Z</time>
      </trkpt>
      <trkpt lat="45.29786" lon="5.8341">
        <ele>1540</ele>
        <time>2013-03-21T18:03:09Z</time>
      </trkpt>
      <trkpt lat="45.29776" lon="5.83386">
        <ele>1544</ele>
        <time>2013-03-21T18:03:09Z</time>
      </trkpt>
      <trkpt lat="45.29768" lon="5.83359">
        <ele>1547</ele>
        <time>2013-03-21T18:03:09Z</time>
      </trkpt>
      <trkpt lat="45.2975" lon="5.83351">
        <ele>1553</ele>
        <time>2013-03-21T18:03:09Z</time>
      </trkpt>
      <trkpt lat="45.29722" lon="5.83317">
        <ele>1562</ele>
        <time>2013-03-21T18:03:09Z</time>
      </trkpt>
      <trkpt lat="45.29726" lon="5.83276">
        <ele>1565</ele>
        <time>2013-03-21T18:03:09Z</time>
      </trkpt>
      <trkpt lat="45.29761" lon="5.83353">
        <ele>1549</ele>
        <time>2013-03-21T18:03:09Z</time>
      </trkpt>
      <trkpt lat="45.29777" lon="5.83362">
        <ele>1544</ele>
        <time>2013-03-21T18:03:09Z</time>
      </trkpt>
      <trkpt lat="45.29794" lon="5.83386">
        <ele>1537</ele>
        <time>2013-03-21T18:03:09Z</time>
      </trkpt>
      <trkpt lat="45.29811" lon="5.83393">
        <ele>1534</ele>
        <time>2013-03-21T18:03:09Z</time>
      </trkpt>
      <trkpt lat="45.29816" lon="5.83371">
        <ele>1527</ele>
        <time>2013-03-21T18:03:09Z</time>
      </trkpt>
      <trkpt lat="45.29812" lon="5.83339">
        <ele>1519</ele>
        <time>2013-03-21T18:03:09Z</time>
      </trkpt>
      <trkpt lat="45.29812" lon="5.83314">
        <ele>1515</ele>
        <time>2013-03-21T18:03:09Z</time>
      </trkpt>
      <trkpt lat="45.29812" lon="5.83277">
        <ele>1514</ele>
        <time>2013-03-21T18:03:09Z</time>
      </trkpt>
      <trkpt lat="45.29829" lon="5.83252">
        <ele>1516</ele>
        <time>2013-03-21T18:03:09Z</time>
      </trkpt>
      <trkpt lat="45.29834" lon="5.83219">
        <ele>1519</ele>
        <time>2013-03-21T18:03:09Z</time>
      </trkpt>
      <trkpt lat="45.29847" lon="5.83192">
        <ele>1521</ele>
        <time>2013-03-21T18:03:09Z</time>
      </trkpt>
      <trkpt lat="45.29868" lon="5.83181">
        <ele>1525</ele>
        <time>2013-03-21T18:03:09Z</time>
      </trkpt>
      <trkpt lat="45.29817" lon="5.8305">
        <ele>1563</ele>
        <time>2013-03-21T18:03:09Z</time>
      </trkpt>
      <trkpt lat="45.29812" lon="5.83039">
        <ele>1569</ele>
        <time>2013-03-21T18:03:09Z</time>
      </trkpt>
      <trkpt lat="45.2983" lon="5.83016">
        <ele>1575</ele>
        <time>2013-03-21T18:03:09Z</time>
      </trkpt>
      <trkpt lat="45.29842" lon="5.82996">
        <ele>1582</ele>
        <time>2013-03-21T18:03:09Z</time>
      </trkpt>
      <trkpt lat="45.29862" lon="5.82993">
        <ele>1585</ele>
        <time>2013-03-21T18:03:09Z</time>
      </trkpt>
      <trkpt lat="45.29843" lon="5.82979">
        <ele>1590</ele>
        <time>2013-03-21T18:03:09Z</time>
      </trkpt>
      <trkpt lat="45.29848" lon="5.8297">
        <ele>1594</ele>
        <time>2013-03-21T18:03:09Z</time>
      </trkpt>
      <trkpt lat="45.29852" lon="5.82962">
        <ele>1602</ele>
        <time>2013-03-21T18:03:09Z</time>
      </trkpt>
      <trkpt lat="45.29869" lon="5.82958">
        <ele>1608</ele>
        <time>2013-03-21T18:03:09Z</time>
      </trkpt>
      <trkpt lat="45.29891" lon="5.82955">
        <ele>1616</ele>
        <time>2013-03-21T18:03:09Z</time>
      </trkpt>
      <trkpt lat="45.29909" lon="5.82938">
        <ele>1621</ele>
        <time>2013-03-21T18:03:09Z</time>
      </trkpt>
      <trkpt lat="45.29891" lon="5.82943">
        <ele>1626</ele>
        <time>2013-03-21T18:03:09Z</time>
      </trkpt>
      <trkpt lat="45.29871" lon="5.82896">
        <ele>1644</ele>
        <time>2013-03-21T18:03:09Z</time>
      </trkpt>
      <trkpt lat="45.29863" lon="5.82882">
        <ele>1651</ele>
        <time>2013-03-21T18:03:09Z</time>
      </trkpt>
      <trkpt lat="45.29847" lon="5.82866">
        <ele>1659</ele>
        <time>2013-03-21T18:03:09Z</time>
      </trkpt>
      <trkpt lat="45.29839" lon="5.82844">
        <ele>1662</ele>
        <time>2013-03-21T18:03:09Z</time>
      </trkpt>
      <trkpt lat="45.29829" lon="5.82824">
        <ele>1664</ele>
        <time>2013-03-21T18:03:09Z</time>
      </trkpt>
      <trkpt lat="45.29824" lon="5.8285">
        <ele>1670</ele>
        <time>2013-03-21T18:03:09Z</time>
      </trkpt>
      <trkpt lat="45.29806" lon="5.82838">
        <ele>1682</ele>
        <time>2013-03-21T18:03:09Z</time>
      </trkpt>
      <trkpt lat="45.29799" lon="5.82819">
        <ele>1691</ele>
        <time>2013-03-21T18:03:09Z</time>
      </trkpt>
      <trkpt lat="45.29787" lon="5.82799">
        <ele>1695</ele>
        <time>2013-03-21T18:03:09Z</time>
      </trkpt>
      <trkpt lat="45.29781" lon="5.82822">
        <ele>1702</ele>
        <time>2013-03-21T18:03:09Z</time>
      </trkpt>
      <trkpt lat="45.29769" lon="5.8283">
        <ele>1710</ele>
        <time>2013-03-21T18:03:09Z</time>
      </trkpt>
      <trkpt lat="45.29747" lon="5.8281">
        <ele>1718</ele>
        <time>2013-03-21T18:03:09Z</time>
      </trkpt>
      <trkpt lat="45.29742" lon="5.82811">
        <ele>1723</ele>
        <time>2013-03-21T18:03:09Z</time>
      </trkpt>
      <trkpt lat="45.29725" lon="5.82795">
        <ele>1732</ele>
        <time>2013-03-21T18:03:09Z</time>
      </trkpt>
      <trkpt lat="45.29702" lon="5.82788">
        <ele>1739</ele>
        <time>2013-03-21T18:03:09Z</time>
      </trkpt>
      <trkpt lat="45.29687" lon="5.82811">
        <ele>1744</ele>
        <time>2013-03-21T18:03:09Z</time>
      </trkpt>
      <trkpt lat="45.29671" lon="5.82833">
        <ele>1749</ele>
        <time>2013-03-21T18:03:09Z</time>
      </trkpt>
      <trkpt lat="45.29744" lon="5.82703">
        <ele>1697</ele>
        <time>2013-03-21T18:03:09Z</time>
      </trkpt>
      <trkpt lat="45.29763" lon="5.82686">
        <ele>1683</ele>
        <time>2013-03-21T18:03:09Z</time>
      </trkpt>
      <trkpt lat="45.29781" lon="5.8269">
        <ele>1667</ele>
        <time>2013-03-21T18:03:09Z</time>
      </trkpt>
      <trkpt lat="45.298" lon="5.82693">
        <ele>1652</ele>
        <time>2013-03-21T18:03:09Z</time>
      </trkpt>
      <trkpt lat="45.29826" lon="5.82704">
        <ele>1650</ele>
        <time>2013-03-21T18:03:09Z</time>
      </trkpt>
      <trkpt lat="45.29829" lon="5.82708">
        <ele>1642</ele>
        <time>2013-03-21T18:03:09Z</time>
      </trkpt>
      <trkpt lat="45.29841" lon="5.82696">
        <ele>1635</ele>
        <time>2013-03-21T18:03:09Z</time>
      </trkpt>
      <trkpt lat="45.29845" lon="5.82683">
        <ele>1627</ele>
        <time>2013-03-21T18:03:09Z</time>
      </trkpt>
      <trkpt lat="45.29853" lon="5.82688">
        <ele>1615</ele>
        <time>2013-03-21T18:03:09Z</time>
      </trkpt>
      <trkpt lat="45.29867" lon="5.82693">
        <ele>1605</ele>
        <time>2013-03-21T18:03:09Z</time>
      </trkpt>
      <trkpt lat="45.29884" lon="5.82693">
        <ele>1594</ele>
        <time>2013-03-21T18:03:09Z</time>
      </trkpt>
      <trkpt lat="45.29892" lon="5.82675">
        <ele>1582</ele>
        <time>2013-03-21T18:03:09Z</time>
      </trkpt>
      <trkpt lat="45.29896" lon="5.82684">
        <ele>1576</ele>
        <time>2013-03-21T18:03:09Z</time>
      </trkpt>
      <trkpt lat="45.29917" lon="5.82686">
        <ele>1561</ele>
        <time>2013-03-21T18:03:09Z</time>
      </trkpt>
      <trkpt lat="45.29927" lon="5.82657">
        <ele>1559</ele>
        <time>2013-03-21T18:03:09Z</time>
      </trkpt>
      <trkpt lat="45.29929" lon="5.82624">
        <ele>1555</ele>
        <time>2013-03-21T18:03:09Z</time>
      </trkpt>
      <trkpt lat="45.29937" lon="5.82632">
        <ele>1541</ele>
        <time>2013-03-21T18:03:09Z</time>
      </trkpt>
      <trkpt lat="45.29958" lon="5.82636">
        <ele>1527</ele>
        <time>2013-03-21T18:03:09Z</time>
      </trkpt>
      <trkpt lat="45.29975" lon="5.82634">
        <ele>1519</ele>
        <time>2013-03-21T18:03:09Z</time>
      </trkpt>
      <trkpt lat="45.29991" lon="5.82626">
        <ele>1509</ele>
        <time>2013-03-21T18:03:09Z</time>
      </trkpt>
      <trkpt lat="45.30015" lon="5.82587">
        <ele>1503</ele>
        <time>2013-03-21T18:03:09Z</time>
      </trkpt>
      <trkpt lat="45.3003" lon="5.82597">
        <ele>1487</ele>
        <time>2013-03-21T18:03:09Z</time>
      </trkpt>
      <trkpt lat="45.30054" lon="5.82623">
        <ele>1468</ele>
        <time>2013-03-21T18:03:09Z</time>
      </trkpt>
      <trkpt lat="45.30069" lon="5.82635">
        <ele>1460</ele>
        <time>2013-03-21T18:03:09Z</time>
      </trkpt>
      <trkpt lat="45.3009" lon="5.82633">
        <ele>1449</ele>
        <time>2013-03-21T18:03:09Z</time>
      </trkpt>
      <trkpt lat="45.3011" lon="5.82636">
        <ele>1436</ele>
        <time>2013-03-21T18:03:09Z</time>
      </trkpt>
      <trkpt lat="45.30125" lon="5.82641">
        <ele>1431</ele>
        <time>2013-03-21T18:03:09Z</time>
      </trkpt>
      <trkpt lat="45.30142" lon="5.82623">
        <ele>1426</ele>
        <time>2013-03-21T18:03:09Z</time>
      </trkpt>
      <trkpt lat="45.30159" lon="5.82609">
        <ele>1420</ele>
        <time>2013-03-21T18:03:09Z</time>
      </trkpt>
      <trkpt lat="45.30174" lon="5.82607">
        <ele>1410</ele>
        <time>2013-03-21T18:03:09Z</time>
      </trkpt>
      <trkpt lat="45.30191" lon="5.82608">
        <ele>1402</ele>
        <time>2013-03-21T18:03:09Z</time>
      </trkpt>
      <trkpt lat="45.30198" lon="5.82618">
        <ele>1396</ele>
        <time>2013-03-21T18:03:09Z</time>
      </trkpt>
      <trkpt lat="45.30221" lon="5.82605">
        <ele>1386</ele>
        <time>2013-03-21T18:03:09Z</time>
      </trkpt>
      <trkpt lat="45.30239" lon="5.82606">
        <ele>1379</ele>
        <time>2013-03-21T18:03:09Z</time>
      </trkpt>
      <trkpt lat="45.30257" lon="5.82595">
        <ele>1371</ele>
        <time>2013-03-21T18:03:09Z</time>
      </trkpt>
      <trkpt lat="45.30273" lon="5.82586">
        <ele>1368</ele>
        <time>2013-03-21T18:03:09Z</time>
      </trkpt>
      <trkpt lat="45.30288" lon="5.82578">
        <ele>1358</ele>
        <time>2013-03-21T18:03:09Z</time>
      </trkpt>
      <trkpt lat="45.3031" lon="5.82602">
        <ele>1348</ele>
        <time>2013-03-21T18:03:09Z</time>
      </trkpt>
      <trkpt lat="45.30328" lon="5.82605">
        <ele>1343</ele>
        <time>2013-03-21T18:03:09Z</time>
      </trkpt>
      <trkpt lat="45.30342" lon="5.8262">
        <ele>1342</ele>
        <time>2013-03-21T18:03:09Z</time>
      </trkpt>
      <trkpt lat="45.30356" lon="5.82613">
        <ele>1337</ele>
        <time>2013-03-21T18:03:09Z</time>
      </trkpt>
      <trkpt lat="45.30371" lon="5.826">
        <ele>1331</ele>
        <time>2013-03-21T18:03:09Z</time>
      </trkpt>
      <trkpt lat="45.30386" lon="5.82623">
        <ele>1318</ele>
        <time>2013-03-21T18:03:09Z</time>
      </trkpt>
      <trkpt lat="45.30402" lon="5.82616">
        <ele>1310</ele>
        <time>2013-03-21T18:03:09Z</time>
      </trkpt>
      <trkpt lat="45.30411" lon="5.82641">
        <ele>1303</ele>
        <time>2013-03-21T18:03:09Z</time>
      </trkpt>
      <trkpt lat="45.30429" lon="5.82693">
        <ele>1302</ele>
        <time>2013-03-21T18:03:09Z</time>
      </trkpt>
      <trkpt lat="45.30352" lon="5.82881">
        <ele>1325</ele>
        <time>2013-03-21T18:03:09Z</time>
      </trkpt>
      <trkpt lat="45.30357" lon="5.82903">
        <ele>1328</ele>
        <time>2013-03-21T18:03:09Z</time>
      </trkpt>
      <trkpt lat="45.30369" lon="5.82922">
        <ele>1332</ele>
        <time>2013-03-21T18:03:09Z</time>
      </trkpt>
      <trkpt lat="45.30385" lon="5.82933">
        <ele>1335</ele>
        <time>2013-03-21T18:03:09Z</time>
      </trkpt>
      <trkpt lat="45.30407" lon="5.82926">
        <ele>1336</ele>
        <time>2013-03-21T18:03:09Z</time>
      </trkpt>
      <trkpt lat="45.30431" lon="5.82915">
        <ele>1341</ele>
        <time>2013-03-21T18:03:09Z</time>
      </trkpt>
      <trkpt lat="45.30451" lon="5.82913">
        <ele>1342</ele>
        <time>2013-03-21T18:03:09Z</time>
      </trkpt>
      <trkpt lat="45.30465" lon="5.82925">
        <ele>1342</ele>
        <time>2013-03-21T18:03:09Z</time>
      </trkpt>
      <trkpt lat="45.3047" lon="5.82955">
        <ele>1345</ele>
        <time>2013-03-21T18:03:09Z</time>
      </trkpt>
      <trkpt lat="45.30473" lon="5.82982">
        <ele>1349</ele>
        <time>2013-03-21T18:03:09Z</time>
      </trkpt>
      <trkpt lat="45.30476" lon="5.83005">
        <ele>1355</ele>
        <time>2013-03-21T18:03:09Z</time>
      </trkpt>
      <trkpt lat="45.30499" lon="5.83007">
        <ele>1360</ele>
        <time>2013-03-21T18:03:09Z</time>
      </trkpt>
      <trkpt lat="45.30514" lon="5.83012">
        <ele>1363</ele>
        <time>2013-03-21T18:03:09Z</time>
      </trkpt>
      <trkpt lat="45.30521" lon="5.83039">
        <ele>1370</ele>
        <time>2013-03-21T18:03:09Z</time>
      </trkpt>
      <trkpt lat="45.30532" lon="5.83058">
        <ele>1373</ele>
        <time>2013-03-21T18:03:09Z</time>
      </trkpt>
      <trkpt lat="45.30548" lon="5.8305">
        <ele>1378</ele>
        <time>2013-03-21T18:03:09Z</time>
      </trkpt>
      <trkpt lat="45.30566" lon="5.83052">
        <ele>1385</ele>
        <time>2013-03-21T18:03:09Z</time>
      </trkpt>
      <trkpt lat="45.30573" lon="5.83071">
        <ele>1393</ele>
        <time>2013-03-21T18:03:09Z</time>
      </trkpt>
      <trkpt lat="45.30582" lon="5.83081">
        <ele>1398</ele>
        <time>2013-03-21T18:03:09Z</time>
      </trkpt>
      <trkpt lat="45.30591" lon="5.83087">
        <ele>1404</ele>
        <time>2013-03-21T18:03:09Z</time>
      </trkpt>
      <trkpt lat="45.30628" lon="5.83005">
        <ele>1415</ele>
        <time>2013-03-21T18:03:09Z</time>
      </trkpt>
      <trkpt lat="45.30636" lon="5.82985">
        <ele>1417</ele>
        <time>2013-03-21T18:03:09Z</time>
      </trkpt>
      <trkpt lat="45.30645" lon="5.82966">
        <ele>1419</ele>
        <time>2013-03-21T18:03:09Z</time>
      </trkpt>
      <trkpt lat="45.30656" lon="5.82945">
        <ele>1421</ele>
        <time>2013-03-21T18:03:09Z</time>
      </trkpt>
      <trkpt lat="45.30669" lon="5.82926">
        <ele>1423</ele>
        <time>2013-03-21T18:03:09Z</time>
      </trkpt>
      <trkpt lat="45.30681" lon="5.82905">
        <ele>1425</ele>
        <time>2013-03-21T18:03:09Z</time>
      </trkpt>
      <trkpt lat="45.307" lon="5.82878">
        <ele>1429</ele>
        <time>2013-03-21T18:03:09Z</time>
      </trkpt>
      <trkpt lat="45.30714" lon="5.82847">
        <ele>1432</ele>
        <time>2013-03-21T18:03:09Z</time>
      </trkpt>
      <trkpt lat="45.30725" lon="5.82832">
        <ele>1435</ele>
        <time>2013-03-21T18:03:09Z</time>
      </trkpt>
      <trkpt lat="45.30744" lon="5.82798">
        <ele>1440</ele>
        <time>2013-03-21T18:03:09Z</time>
      </trkpt>
      <trkpt lat="45.30754" lon="5.82771">
        <ele>1442</ele>
        <time>2013-03-21T18:03:09Z</time>
      </trkpt>
      <trkpt lat="45.30767" lon="5.82737">
        <ele>1445</ele>
        <time>2013-03-21T18:03:09Z</time>
      </trkpt>
      <trkpt lat="45.30787" lon="5.82709">
        <ele>1449</ele>
        <time>2013-03-21T18:03:09Z</time>
      </trkpt>
      <trkpt lat="45.30827" lon="5.82699">
        <ele>1463</ele>
        <time>2013-03-21T18:03:09Z</time>
      </trkpt>
      <trkpt lat="45.30841" lon="5.82681">
        <ele>1468</ele>
        <time>2013-03-21T18:03:09Z</time>
      </trkpt>
      <trkpt lat="45.30856" lon="5.82662">
        <ele>1473</ele>
        <time>2013-03-21T18:03:09Z</time>
      </trkpt>
      <trkpt lat="45.30874" lon="5.82651">
        <ele>1480</ele>
        <time>2013-03-21T18:03:09Z</time>
      </trkpt>
      <trkpt lat="45.30891" lon="5.82649">
        <ele>1482</ele>
        <time>2013-03-21T18:03:09Z</time>
      </trkpt>
      <trkpt lat="45.30912" lon="5.82649">
        <ele>1488</ele>
        <time>2013-03-21T18:03:09Z</time>
      </trkpt>
      <trkpt lat="45.30931" lon="5.82652">
        <ele>1495</ele>
        <time>2013-03-21T18:03:09Z</time>
      </trkpt>
      <trkpt lat="45.30953" lon="5.82656">
        <ele>1498</ele>
        <time>2013-03-21T18:03:09Z</time>
      </trkpt>
      <trkpt lat="45.30952" lon="5.82693">
        <ele>1508</ele>
        <time>2013-03-21T18:03:09Z</time>
      </trkpt>
      <trkpt lat="45.30947" lon="5.82713">
        <ele>1511</ele>
        <time>2013-03-21T18:03:09Z</time>
      </trkpt>
      <trkpt lat="45.30944" lon="5.82745">
        <ele>1517</ele>
        <time>2013-03-21T18:03:09Z</time>
      </trkpt>
      <trkpt lat="45.30964" lon="5.8276">
        <ele>1521</ele>
        <time>2013-03-21T18:03:09Z</time>
      </trkpt>
      <trkpt lat="45.30988" lon="5.82772">
        <ele>1527</ele>
        <time>2013-03-21T18:03:09Z</time>
      </trkpt>
      <trkpt lat="45.30991" lon="5.828">
        <ele>1533</ele>
        <time>2013-03-21T18:03:09Z</time>
      </trkpt>
      <trkpt lat="45.30989" lon="5.82829">
        <ele>1538</ele>
        <time>2013-03-21T18:03:09Z</time>
      </trkpt>
      <trkpt lat="45.30993" lon="5.82853">
        <ele>1541</ele>
        <time>2013-03-21T18:03:09Z</time>
      </trkpt>
      <trkpt lat="45.31007" lon="5.82873">
        <ele>1546</ele>
        <time>2013-03-21T18:03:09Z</time>
      </trkpt>
      <trkpt lat="45.31032" lon="5.82874">
        <ele>1552</ele>
        <time>2013-03-21T18:03:09Z</time>
      </trkpt>
      <trkpt lat="45.31038" lon="5.82897">
        <ele>1558</ele>
        <time>2013-03-21T18:03:09Z</time>
      </trkpt>
      <trkpt lat="45.31058" lon="5.82896">
        <ele>1559</ele>
        <time>2013-03-21T18:03:09Z</time>
      </trkpt>
      <trkpt lat="45.31076" lon="5.82903">
        <ele>1567</ele>
        <time>2013-03-21T18:03:09Z</time>
      </trkpt>
      <trkpt lat="45.31099" lon="5.82909">
        <ele>1572</ele>
        <time>2013-03-21T18:03:09Z</time>
      </trkpt>
      <trkpt lat="45.31124" lon="5.8292">
        <ele>1578</ele>
        <time>2013-03-21T18:03:09Z</time>
      </trkpt>
      <trkpt lat="45.31142" lon="5.82934">
        <ele>1583</ele>
        <time>2013-03-21T18:03:09Z</time>
      </trkpt>
      <trkpt lat="45.31165" lon="5.82941">
        <ele>1589</ele>
        <time>2013-03-21T18:03:09Z</time>
      </trkpt>
      <trkpt lat="45.31179" lon="5.82953">
        <ele>1592</ele>
        <time>2013-03-21T18:03:09Z</time>
      </trkpt>
      <trkpt lat="45.31201" lon="5.82977">
        <ele>1597</ele>
        <time>2013-03-21T18:03:09Z</time>
      </trkpt>
      <trkpt lat="45.31223" lon="5.82998">
        <ele>1604</ele>
        <time>2013-03-21T18:03:09Z</time>
      </trkpt>
      <trkpt lat="45.31234" lon="5.83011">
        <ele>1606</ele>
        <time>2013-03-21T18:03:09Z</time>
      </trkpt>
      <trkpt lat="45.31269" lon="5.83168">
        <ele>1635</ele>
        <time>2013-03-21T18:03:09Z</time>
      </trkpt>
      <trkpt lat="45.31278" lon="5.83184">
        <ele>1639</ele>
        <time>2013-03-21T18:03:09Z</time>
      </trkpt>
      <trkpt lat="45.31286" lon="5.83202">
        <ele>1641</ele>
        <time>2013-03-21T18:03:09Z</time>
      </trkpt>
      <trkpt lat="45.31295" lon="5.83219">
        <ele>1643</ele>
        <time>2013-03-21T18:03:09Z</time>
      </trkpt>
      <trkpt lat="45.31303" lon="5.83238">
        <ele>1644</ele>
        <time>2013-03-21T18:03:09Z</time>
      </trkpt>
      <trkpt lat="45.31295" lon="5.83268">
        <ele>1651</ele>
        <time>2013-03-21T18:03:09Z</time>
      </trkpt>
      <trkpt lat="45.31289" lon="5.83289">
        <ele>1653</ele>
        <time>2013-03-21T18:03:09Z</time>
      </trkpt>
      <trkpt lat="45.3128" lon="5.83322">
        <ele>1657</ele>
        <time>2013-03-21T18:03:09Z</time>
      </trkpt>
      <trkpt lat="45.31276" lon="5.83347">
        <ele>1660</ele>
        <time>2013-03-21T18:03:09Z</time>
      </trkpt>
      <trkpt lat="45.31269" lon="5.83366">
        <ele>1663</ele>
        <time>2013-03-21T18:03:09Z</time>
      </trkpt>
      <trkpt lat="45.3125" lon="5.83382">
        <ele>1668</ele>
        <time>2013-03-21T18:03:09Z</time>
      </trkpt>
      <trkpt lat="45.31254" lon="5.83403">
        <ele>1673</ele>
        <time>2013-03-21T18:03:09Z</time>
      </trkpt>
      <trkpt lat="45.31267" lon="5.8343">
        <ele>1677</ele>
        <time>2013-03-21T18:03:09Z</time>
      </trkpt>
      <trkpt lat="45.31276" lon="5.83445">
        <ele>1680</ele>
        <time>2013-03-21T18:03:09Z</time>
      </trkpt>
      <trkpt lat="45.31293" lon="5.83463">
        <ele>1685</ele>
        <time>2013-03-21T18:03:09Z</time>
      </trkpt>
      <trkpt lat="45.31309" lon="5.83476">
        <ele>1691</ele>
        <time>2013-03-21T18:03:09Z</time>
      </trkpt>
      <trkpt lat="45.31321" lon="5.83492">
        <ele>1697</ele>
        <time>2013-03-21T18:03:09Z</time>
      </trkpt>
      <trkpt lat="45.31332" lon="5.83503">
        <ele>1701</ele>
        <time>2013-03-21T18:03:09Z</time>
      </trkpt>
      <trkpt lat="45.31343" lon="5.83514">
        <ele>1705</ele>
        <time>2013-03-21T18:03:09Z</time>
      </trkpt>
      <trkpt lat="45.31364" lon="5.83537">
        <ele>1710</ele>
        <time>2013-03-21T18:03:09Z</time>
      </trkpt>
      <trkpt lat="45.31378" lon="5.83568">
        <ele>1713</ele>
        <time>2013-03-21T18:03:09Z</time>
      </trkpt>
      <trkpt lat="45.31386" lon="5.83586">
        <ele>1714</ele>
        <time>2013-03-21T18:03:09Z</time>
      </trkpt>
      <trkpt lat="45.31379" lon="5.83593">
        <ele>1716</ele>
        <time>2013-03-21T18:03:09Z</time>
      </trkpt>
      <trkpt lat="45.31366" lon="5.83609">
        <ele>1724</ele>
        <time>2013-03-21T18:03:09Z</time>
      </trkpt>
      <trkpt lat="45.31345" lon="5.83604">
        <ele>1729</ele>
        <time>2013-03-21T18:03:09Z</time>
      </trkpt>
      <trkpt lat="45.31328" lon="5.83599">
        <ele>1735</ele>
        <time>2013-03-21T18:03:09Z</time>
      </trkpt>
      <trkpt lat="45.31294" lon="5.83591">
        <ele>1741</ele>
        <time>2013-03-21T18:03:09Z</time>
      </trkpt>
      <trkpt lat="45.31279" lon="5.83588">
        <ele>1742</ele>
        <time>2013-03-21T18:03:09Z</time>
      </trkpt>
      <trkpt lat="45.31254" lon="5.83581">
        <ele>1747</ele>
        <time>2013-03-21T18:03:09Z</time>
      </trkpt>
      <trkpt lat="45.3124" lon="5.83576">
        <ele>1750</ele>
        <time>2013-03-21T18:03:09Z</time>
      </trkpt>
      <trkpt lat="45.31216" lon="5.83569">
        <ele>1755</ele>
        <time>2013-03-21T18:03:09Z</time>
      </trkpt>
      <trkpt lat="45.31203" lon="5.83564">
        <ele>1756</ele>
        <time>2013-03-21T18:03:09Z</time>
      </trkpt>
      <trkpt lat="45.3119" lon="5.83559">
        <ele>1758</ele>
        <time>2013-03-21T18:03:09Z</time>
      </trkpt>
      <trkpt lat="45.31168" lon="5.83547">
        <ele>1764</ele>
        <time>2013-03-21T18:03:09Z</time>
      </trkpt>
      <trkpt lat="45.31153" lon="5.83544">
        <ele>1768</ele>
        <time>2013-03-21T18:03:09Z</time>
      </trkpt>
      <trkpt lat="45.31138" lon="5.83542">
        <ele>1769</ele>
        <time>2013-03-21T18:03:09Z</time>
      </trkpt>
      <trkpt lat="45.31012" lon="5.83618">
        <ele>1709</ele>
        <time>2013-03-21T18:03:09Z</time>
      </trkpt>
      <trkpt lat="45.31008" lon="5.83634">
        <ele>1699</ele>
        <time>2013-03-21T18:03:09Z</time>
      </trkpt>
      <trkpt lat="45.30996" lon="5.83665">
        <ele>1686</ele>
        <time>2013-03-21T18:03:09Z</time>
      </trkpt>
      <trkpt lat="45.30989" lon="5.83681">
        <ele>1681</ele>
        <time>2013-03-21T18:03:09Z</time>
      </trkpt>
      <trkpt lat="45.30996" lon="5.83709">
        <ele>1671</ele>
        <time>2013-03-21T18:03:09Z</time>
      </trkpt>
      <trkpt lat="45.30991" lon="5.83728">
        <ele>1659</ele>
        <time>2013-03-21T18:03:09Z</time>
      </trkpt>
      <trkpt lat="45.30978" lon="5.8374">
        <ele>1652</ele>
        <time>2013-03-21T18:03:09Z</time>
      </trkpt>
      <trkpt lat="45.30975" lon="5.8376">
        <ele>1646</ele>
        <time>2013-03-21T18:03:09Z</time>
      </trkpt>
      <trkpt lat="45.30967" lon="5.83773">
        <ele>1636</ele>
        <time>2013-03-21T18:03:09Z</time>
      </trkpt>
      <trkpt lat="45.30959" lon="5.83787">
        <ele>1629</ele>
        <time>2013-03-21T18:03:09Z</time>
      </trkpt>
      <trkpt lat="45.30958" lon="5.83812">
        <ele>1617</ele>
        <time>2013-03-21T18:03:09Z</time>
      </trkpt>
      <trkpt lat="45.30945" lon="5.83833">
        <ele>1604</ele>
        <time>2013-03-21T18:03:09Z</time>
      </trkpt>
      <trkpt lat="45.30942" lon="5.83848">
        <ele>1594</ele>
        <time>2013-03-21T18:03:09Z</time>
      </trkpt>
      <trkpt lat="45.30939" lon="5.83869">
        <ele>1585</ele>
        <time>2013-03-21T18:03:09Z</time>
      </trkpt>
      <trkpt lat="45.30948" lon="5.83891">
        <ele>1578</ele>
        <time>2013-03-21T18:03:09Z</time>
      </trkpt>
      <trkpt lat="45.30935" lon="5.83914">
        <ele>1566</ele>
        <time>2013-03-21T18:03:09Z</time>
      </trkpt>
      <trkpt lat="45.30926" lon="5.83938">
        <ele>1556</ele>
        <time>2013-03-21T18:03:09Z</time>
      </trkpt>
      <trkpt lat="45.30916" lon="5.83953">
        <ele>1547</ele>
        <time>2013-03-21T18:03:09Z</time>
      </trkpt>
      <trkpt lat="45.30902" lon="5.83957">
        <ele>1539</ele>
        <time>2013-03-21T18:03:09Z</time>
      </trkpt>
      <trkpt lat="45.30908" lon="5.83982">
        <ele>1538</ele>
        <time>2013-03-21T18:03:09Z</time>
      </trkpt>
      <trkpt lat="45.30904" lon="5.84003">
        <ele>1531</ele>
        <time>2013-03-21T18:03:09Z</time>
      </trkpt>
      <trkpt lat="45.30895" lon="5.8402">
        <ele>1524</ele>
        <time>2013-03-21T18:03:09Z</time>
      </trkpt>
      <trkpt lat="45.3088" lon="5.84038">
        <ele>1517</ele>
        <time>2013-03-21T18:03:09Z</time>
      </trkpt>
      <trkpt lat="45.3087" lon="5.84056">
        <ele>1511</ele>
        <time>2013-03-21T18:03:09Z</time>
      </trkpt>
      <trkpt lat="45.30858" lon="5.84067">
        <ele>1506</ele>
        <time>2013-03-21T18:03:09Z</time>
      </trkpt>
      <trkpt lat="45.30843" lon="5.84108">
        <ele>1501</ele>
        <time>2013-03-21T18:03:09Z</time>
      </trkpt>
      <trkpt lat="45.30836" lon="5.84089">
        <ele>1497</ele>
        <time>2013-03-21T18:03:09Z</time>
      </trkpt>
      <trkpt lat="45.30827" lon="5.84074">
        <ele>1495</ele>
        <time>2013-03-21T18:03:09Z</time>
      </trkpt>
      <trkpt lat="45.30814" lon="5.84083">
        <ele>1488</ele>
        <time>2013-03-21T18:03:09Z</time>
      </trkpt>
      <trkpt lat="45.30763" lon="5.84137">
        <ele>1474</ele>
        <time>2013-03-21T18:03:09Z</time>
      </trkpt>
      <trkpt lat="45.30733" lon="5.84137">
        <ele>1467</ele>
        <time>2013-03-21T18:03:09Z</time>
      </trkpt>
      <trkpt lat="45.30726" lon="5.84159">
        <ele>1463</ele>
        <time>2013-03-21T18:03:09Z</time>
      </trkpt>
      <trkpt lat="45.30721" lon="5.84175">
        <ele>1462</ele>
        <time>2013-03-21T18:03:09Z</time>
      </trkpt>
      <trkpt lat="45.3068" lon="5.84164">
        <ele>1451</ele>
        <time>2013-03-21T18:03:09Z</time>
      </trkpt>
      <trkpt lat="45.30661" lon="5.84157">
        <ele>1447</ele>
        <time>2013-03-21T18:03:09Z</time>
      </trkpt>
      <trkpt lat="45.30648" lon="5.84159">
        <ele>1444</ele>
        <time>2013-03-21T18:03:09Z</time>
      </trkpt>
      <trkpt lat="45.30631" lon="5.84165">
        <ele>1438</ele>
        <time>2013-03-21T18:03:09Z</time>
      </trkpt>
      <trkpt lat="45.30616" lon="5.84171">
        <ele>1431</ele>
        <time>2013-03-21T18:03:09Z</time>
      </trkpt>
      <trkpt lat="45.30601" lon="5.84144">
        <ele>1428</ele>
        <time>2013-03-21T18:03:09Z</time>
      </trkpt>
      <trkpt lat="45.30614" lon="5.8411">
        <ele>1423</ele>
        <time>2013-03-21T18:03:09Z</time>
      </trkpt>
      <trkpt lat="45.30621" lon="5.84088">
        <ele>1421</ele>
        <time>2013-03-21T18:03:09Z</time>
      </trkpt>
      <trkpt lat="45.30606" lon="5.84069">
        <ele>1416</ele>
        <time>2013-03-21T18:03:09Z</time>
      </trkpt>
      <trkpt lat="45.30598" lon="5.84051">
        <ele>1414</ele>
        <time>2013-03-21T18:03:09Z</time>
      </trkpt>
      <trkpt lat="45.30579" lon="5.84035">
        <ele>1410</ele>
        <time>2013-03-21T18:03:09Z</time>
      </trkpt>
      <trkpt lat="45.30554" lon="5.8402">
        <ele>1408</ele>
        <time>2013-03-21T18:03:09Z</time>
      </trkpt>
      <trkpt lat="45.30544" lon="5.84012">
        <ele>1406</ele>
        <time>2013-03-21T18:03:09Z</time>
      </trkpt>
      <trkpt lat="45.30531" lon="5.8398">
        <ele>1402</ele>
        <time>2013-03-21T18:03:09Z</time>
      </trkpt>
      <trkpt lat="45.30527" lon="5.8401">
        <ele>1399</ele>
        <time>2013-03-21T18:03:09Z</time>
      </trkpt>
      <trkpt lat="45.30534" lon="5.84055">
        <ele>1396</ele>
        <time>2013-03-21T18:03:09Z</time>
      </trkpt>
      <trkpt lat="45.30509" lon="5.84066">
        <ele>1393</ele>
        <time>2013-03-21T18:03:09Z</time>
      </trkpt>
      <trkpt lat="45.30498" lon="5.84051">
        <ele>1391</ele>
        <time>2013-03-21T18:03:09Z</time>
      </trkpt>
      <trkpt lat="45.30486" lon="5.84034">
        <ele>1390</ele>
        <time>2013-03-21T18:03:09Z</time>
      </trkpt>
      <trkpt lat="45.30472" lon="5.84024">
        <ele>1390</ele>
        <time>2013-03-21T18:03:09Z</time>
      </trkpt>
      <trkpt lat="45.30462" lon="5.8402">
        <ele>1389</ele>
        <time>2013-03-21T18:03:09Z</time>
      </trkpt>
      <trkpt lat="45.30452" lon="5.84017">
        <ele>1386</ele>
        <time>2013-03-21T18:03:09Z</time>
      </trkpt>
      <trkpt lat="45.30431" lon="5.8401">
        <ele>1383</ele>
        <time>2013-03-21T18:03:09Z</time>
      </trkpt>
      <trkpt lat="45.30408" lon="5.83998">
        <ele>1381</ele>
        <time>2013-03-21T18:03:09Z</time>
      </trkpt>
      <trkpt lat="45.30395" lon="5.8399">
        <ele>1380</ele>
        <time>2013-03-21T18:03:09Z</time>
      </trkpt>
      <trkpt lat="45.30381" lon="5.83973">
        <ele>1378</ele>
        <time>2013-03-21T18:03:09Z</time>
      </trkpt>
      <trkpt lat="45.30364" lon="5.8395">
        <ele>1374</ele>
        <time>2013-03-21T18:03:09Z</time>
      </trkpt>
      <trkpt lat="45.30341" lon="5.83917">
        <ele>1373</ele>
        <time>2013-03-21T18:03:09Z</time>
      </trkpt>
      <trkpt lat="45.30319" lon="5.83909">
        <ele>1368</ele>
        <time>2013-03-21T18:03:09Z</time>
      </trkpt>
      <trkpt lat="45.30317" lon="5.83936">
        <ele>1366</ele>
        <time>2013-03-21T18:03:09Z</time>
      </trkpt>
      <trkpt lat="45.30343" lon="5.84003">
        <ele>1361</ele>
        <time>2013-03-21T18:03:09Z</time>
      </trkpt>
      <trkpt lat="45.30341" lon="5.84073">
        <ele>1358</ele>
        <time>2013-03-21T18:03:09Z</time>
      </trkpt>
      <trkpt lat="45.30322" lon="5.84024">
        <ele>1355</ele>
        <time>2013-03-21T18:03:09Z</time>
      </trkpt>
      <trkpt lat="45.30291" lon="5.8399">
        <ele>1352</ele>
        <time>2013-03-21T18:03:09Z</time>
      </trkpt>
      <trkpt lat="45.30278" lon="5.83978">
        <ele>1350</ele>
        <time>2013-03-21T18:03:09Z</time>
      </trkpt>
      <trkpt lat="45.3027" lon="5.8397">
        <ele>1349</ele>
        <time>2013-03-21T18:03:09Z</time>
      </trkpt>
      <trkpt lat="45.3025" lon="5.83952">
        <ele>1346</ele>
        <time>2013-03-21T18:03:09Z</time>
      </trkpt>
      <trkpt lat="45.30235" lon="5.83938">
        <ele>1345</ele>
        <time>2013-03-21T18:03:09Z</time>
      </trkpt>
      <trkpt lat="45.30213" lon="5.8393">
        <ele>1343</ele>
        <time>2013-03-21T18:03:09Z</time>
      </trkpt>
      <trkpt lat="45.30193" lon="5.8393">
        <ele>1339</ele>
        <time>2013-03-21T18:03:09Z</time>
      </trkpt>
      <trkpt lat="45.30183" lon="5.83932">
        <ele>1338</ele>
        <time>2013-03-21T18:03:09Z</time>
      </trkpt>
      <trkpt lat="45.30167" lon="5.83934">
        <ele>1336</ele>
        <time>2013-03-21T18:03:09Z</time>
      </trkpt>
      <trkpt lat="45.30143" lon="5.83937">
        <ele>1333</ele>
        <time>2013-03-21T18:03:09Z</time>
      </trkpt>
      <trkpt lat="45.30139" lon="5.83962">
        <ele>1331</ele>
        <time>2013-03-21T18:03:09Z</time>
      </trkpt>
      <trkpt lat="45.30169" lon="5.83966">
        <ele>1329</ele>
        <time>2013-03-21T18:03:09Z</time>
      </trkpt>
      <trkpt lat="45.30183" lon="5.83969">
        <ele>1328</ele>
        <time>2013-03-21T18:03:09Z</time>
      </trkpt>
      <trkpt lat="45.30208" lon="5.83993">
        <ele>1324</ele>
        <time>2013-03-21T18:03:09Z</time>
      </trkpt>
      <trkpt lat="45.30216" lon="5.84017">
        <ele>1322</ele>
        <time>2013-03-21T18:03:09Z</time>
      </trkpt>
      <trkpt lat="45.30219" lon="5.8403">
        <ele>1321</ele>
        <time>2013-03-21T18:03:09Z</time>
      </trkpt>
      <trkpt lat="45.30231" lon="5.84066">
        <ele>1319</ele>
        <time>2013-03-21T18:03:09Z</time>
      </trkpt>
      <trkpt lat="45.30236" lon="5.84079">
        <ele>1318</ele>
        <time>2013-03-21T18:03:09Z</time>
      </trkpt>
      <trkpt lat="45.30217" lon="5.84094">
        <ele>1314</ele>
        <time>2013-03-21T18:03:09Z</time>
      </trkpt>
      <trkpt lat="45.30206" lon="5.84056">
        <ele>1311</ele>
        <time>2013-03-21T18:03:09Z</time>
      </trkpt>
      <trkpt lat="45.30201" lon="5.84051">
        <ele>1311</ele>
        <time>2013-03-21T18:03:09Z</time>
      </trkpt>
      <trkpt lat="45.30175" lon="5.84047">
        <ele>1309</ele>
        <time>2013-03-21T18:03:09Z</time>
      </trkpt>
      <trkpt lat="45.3014" lon="5.84058">
        <ele>1304</ele>
        <time>2013-03-21T18:03:09Z</time>
      </trkpt>
      <trkpt lat="45.30116" lon="5.84063">
        <ele>1301</ele>
        <time>2013-03-21T18:03:09Z</time>
      </trkpt>
      <trkpt lat="45.30081" lon="5.84068">
        <ele>1298</ele>
        <time>2013-03-21T18:03:09Z</time>
      </trkpt>
      <trkpt lat="45.30069" lon="5.8407">
        <ele>1296</ele>
        <time>2013-03-21T18:03:09Z</time>
      </trkpt>
      <trkpt lat="45.30058" lon="5.84072">
        <ele>1294</ele>
        <time>2013-03-21T18:03:09Z</time>
      </trkpt>
      <trkpt lat="45.30037" lon="5.84075">
        <ele>1291</ele>
        <time>2013-03-21T18:03:09Z</time>
      </trkpt>
      <trkpt lat="45.30014" lon="5.84077">
        <ele>1288</ele>
        <time>2013-03-21T18:03:09Z</time>
      </trkpt>
      <trkpt lat="45.29982" lon="5.84064">
        <ele>1284</ele>
        <time>2013-03-21T18:03:09Z</time>
      </trkpt>
      <trkpt lat="45.29977" lon="5.84059">
        <ele>1283</ele>
        <time>2013-03-21T18:03:09Z</time>
      </trkpt>
      <trkpt lat="45.29965" lon="5.84049">
        <ele>1281</ele>
        <time>2013-03-21T18:03:09Z</time>
      </trkpt>
      <trkpt lat="45.29968" lon="5.84051">
        <ele>1277</ele>
        <time>2013-03-21T18:03:09Z</time>
      </trkpt>
      <trkpt lat="45.29973" lon="5.84055">
        <ele>1277</ele>
        <time>2013-03-21T18:03:09Z</time>
      </trkpt>
      <trkpt lat="45.2998" lon="5.84062">
        <ele>1275</ele>
        <time>2013-03-21T18:03:09Z</time>
      </trkpt>
      <trkpt lat="45.30003" lon="5.84075">
        <ele>1271</ele>
        <time>2013-03-21T18:03:09Z</time>
      </trkpt>
      <trkpt lat="45.30005" lon="5.84202">
        <ele>1264</ele>
        <time>2013-03-21T18:03:09Z</time>
      </trkpt>
      <trkpt lat="45.29974" lon="5.8422">
        <ele>1261</ele>
        <time>2013-03-21T18:03:09Z</time>
      </trkpt>
      <trkpt lat="45.29968" lon="5.84224">
        <ele>1260</ele>
        <time>2013-03-21T18:03:09Z</time>
      </trkpt>
      <trkpt lat="45.29937" lon="5.84249">
        <ele>1257</ele>
        <time>2013-03-21T18:03:09Z</time>
      </trkpt>
      <trkpt lat="45.29922" lon="5.84262">
        <ele>1254</ele>
        <time>2013-03-21T18:03:09Z</time>
      </trkpt>
      <trkpt lat="45.29906" lon="5.84276">
        <ele>1250</ele>
        <time>2013-03-21T18:03:09Z</time>
      </trkpt>
      <trkpt lat="45.29871" lon="5.84309">
        <ele>1247</ele>
        <time>2013-03-21T18:03:09Z</time>
      </trkpt>
      <trkpt lat="45.29855" lon="5.84323">
        <ele>1244</ele>
        <time>2013-03-21T18:03:09Z</time>
      </trkpt>
      <trkpt lat="45.2984" lon="5.84336">
        <ele>1243</ele>
        <time>2013-03-21T18:03:09Z</time>
      </trkpt>
      <trkpt lat="45.29812" lon="5.84362">
        <ele>1239</ele>
        <time>2013-03-21T18:03:09Z</time>
      </trkpt>
      <trkpt lat="45.298" lon="5.84374">
        <ele>1237</ele>
        <time>2013-03-21T18:03:09Z</time>
      </trkpt>
      <trkpt lat="45.29781" lon="5.84392">
        <ele>1234</ele>
        <time>2013-03-21T18:03:09Z</time>
      </trkpt>
      <trkpt lat="45.29765" lon="5.84407">
        <ele>1232</ele>
        <time>2013-03-21T18:03:09Z</time>
      </trkpt>
      <trkpt lat="45.29759" lon="5.84413">
        <ele>1231</ele>
        <time>2013-03-21T18:03:09Z</time>
      </trkpt>
      <trkpt lat="45.29731" lon="5.84439">
        <ele>1228</ele>
        <time>2013-03-21T18:03:09Z</time>
      </trkpt>
      <trkpt lat="45.29715" lon="5.84455">
        <ele>1225</ele>
        <time>2013-03-21T18:03:09Z</time>
      </trkpt>
      <trkpt lat="45.29702" lon="5.84468">
        <ele>1223</ele>
        <time>2013-03-21T18:03:09Z</time>
      </trkpt>
      <trkpt lat="45.29687" lon="5.84483">
        <ele>1221</ele>
        <time>2013-03-21T18:03:09Z</time>
      </trkpt>
      <trkpt lat="45.29676" lon="5.84494">
        <ele>1221</ele>
        <time>2013-03-21T18:03:09Z</time>
      </trkpt>
      <trkpt lat="45.29666" lon="5.84508">
        <ele>1219</ele>
        <time>2013-03-21T18:03:09Z</time>
      </trkpt>
      <trkpt lat="45.29654" lon="5.84527">
        <ele>1218</ele>
        <time>2013-03-21T18:03:09Z</time>
      </trkpt>
    </trkseg>
  </trk>
</gpx>